| time (UTC) | temp F | wind direction | speed MPH | gust MPH | rain 1hr in | rain 24hr in | rain mn in | humidity % | barometer mb |
| 20260505111611 | 48 | 164 | 4.0 | 7.0 | 0.00 | 0.00 | 0.00 | 86 | 1012.8 |
| 20260505101533 | 51 | 151 | 3.0 | 6.0 | 0.00 | 0.00 | 0.00 | 80 | 1012.5 |
| 20260505100044 | 52 | 153 | 3.0 | 5.0 | 0.00 | 0.00 | 0.00 | 77 | 1012.5 |
| 20260505093031 | 54 | 151 | 1.0 | 3.0 | 0.00 | 0.00 | 0.00 | 75 | 1012.4 |
| 20260505090035 | 58 | 150 | 1.0 | 5.0 | 0.00 | 0.00 | 0.00 | 70 | 1012.2 |
| 20260505084606 | 59 | 199 | 3.0 | 7.0 | 0.00 | 0.00 | 0.00 | 69 | 1012.2 |
| 20260505083034 | 60 | 186 | 3.0 | 6.0 | 0.00 | 0.00 | 0.00 | 69 | 1012.2 |
| 20260505081535 | 61 | 212 | 5.0 | 17.0 | 0.00 | 0.00 | 0.00 | 68 | 1012.1 |
| 20260505080036 | 62 | 204 | 5.0 | 14.0 | 0.00 | 0.00 | 0.00 | 68 | 1012.1 |
| 20260505074535 | 62 | 226 | 5.0 | 9.0 | 0.00 | 0.00 | 0.00 | 69 | 1012.0 |
| 20260505071645 | 60 | 213 | 2.0 | 7.0 | 0.00 | 0.00 | 0.00 | 71 | 1011.9 |
| 20260505070036 | 62 | 204 | 2.0 | 9.0 | 0.00 | 0.00 | 0.00 | 69 | 1011.8 |
| 20260505064534 | 62 | 185 | 4.0 | 10.0 | 0.00 | 0.00 | 0.00 | 69 | 1011.8 |
| 20260505061538 | 62 | 200 | 3.0 | 8.0 | 0.00 | 0.00 | 0.00 | 68 | 1011.8 |
| 20260505060035 | 61 | 200 | 2.0 | 9.0 | 0.00 | 0.00 | 0.00 | 69 | 1011.8 |
| 20260505054536 | 61 | 209 | 2.0 | 6.0 | 0.00 | 0.00 | 0.00 | 68 | 1011.8 |
| 20260505050142 | 64 | 221 | 4.0 | 11.0 | 0.00 | 0.00 | 0.00 | 60 | 1011.6 |
| 20260505041607 | 64 | 218 | 4.0 | 13.0 | 0.00 | 0.00 | 0.00 | 57 | 1011.1 |
| 20260505040049 | 64 | 229 | 3.0 | 9.0 | 0.00 | 0.00 | 0.00 | 55 | 1010.9 |
| 20260505034533 | 65 | 240 | 3.0 | 5.0 | 0.00 | 0.00 | 0.00 | 53 | 1010.7 |
| 20260505033032 | 65 | 220 | 3.0 | 8.0 | 0.00 | 0.00 | 0.00 | 53 | 1010.5 |
| 20260505031534 | 66 | 227 | 2.0 | 7.0 | 0.00 | 0.00 | 0.00 | 51 | 1010.2 |
| 20260505030034 | 69 | 247 | 2.0 | 7.0 | 0.00 | 0.00 | 0.00 | 48 | 1010.0 |
| 20260505024532 | 70 | 225 | 2.0 | 4.0 | 0.00 | 0.00 | 0.00 | 47 | 1009.9 |
| 20260505023036 | 71 | 193 | 3.0 | 11.0 | 0.00 | 0.00 | 0.00 | 46 | 1009.9 |
| 20260505021535 | 72 | 238 | 4.0 | 14.0 | 0.00 | 0.00 | 0.00 | 46 | 1009.8 |
| 20260505020036 | 73 | 230 | 5.0 | 10.0 | 0.00 | 0.00 | 0.00 | 45 | 1009.7 |
| 20260505014536 | 74 | 250 | 7.0 | 17.0 | 0.00 | 0.00 | 0.00 | 44 | 1009.7 |
| 20260505013036 | 74 | 252 | 7.0 | 16.0 | 0.00 | 0.00 | 0.00 | 42 | 1009.6 |
| 20260505011535 | 75 | 261 | 7.0 | 15.0 | 0.00 | 0.00 | 0.00 | 41 | 1009.5 |
| 20260505010033 | 76 | 270 | 7.0 | 14.0 | 0.00 | 0.00 | 0.00 | 40 | 1009.6 |
| 20260505004535 | 76 | 260 | 9.0 | 18.0 | 0.00 | 0.00 | 0.00 | 38 | 1009.5 |
| 20260505001531 | 77 | 255 | 9.0 | 18.0 | 0.00 | 0.00 | 0.00 | 38 | 1009.3 |
| 20260505000039 | 77 | 264 | 9.0 | 18.0 | 0.00 | 0.00 | 0.00 | 39 | 1009.3 |
| 20260504234534 | 78 | 274 | 9.0 | 19.0 | 0.00 | 0.00 | 0.00 | 39 | 1009.2 |
| 20260504233106 | 79 | 259 | 8.0 | 17.0 | 0.00 | 0.00 | 0.00 | 38 | 1009.2 |
| 20260504230036 | 79 | 261 | 9.0 | 19.0 | 0.00 | 0.00 | 0.00 | 38 | 1009.3 |
| 20260504224537 | 79 | 259 | 9.0 | 17.0 | 0.00 | 0.00 | 0.00 | 38 | 1009.4 |
| 20260504221536 | 80 | 253 | 10.0 | 17.0 | 0.00 | 0.00 | 0.00 | 37 | 1009.5 |
| 20260504220141 | 79 | 259 | 10.0 | 18.0 | 0.00 | 0.00 | 0.00 | 37 | 1009.6 |
| 20260504214535 | 79 | 260 | 10.0 | 18.0 | 0.00 | 0.00 | 0.00 | 37 | 1009.7 |
| 20260504213030 | 80 | 263 | 9.0 | 17.0 | 0.00 | 0.00 | 0.00 | 36 | 1009.7 |
| 20260504211535 | 80 | 256 | 9.0 | 17.0 | 0.00 | 0.00 | 0.00 | 36 | 1009.8 |
| 20260504210035 | 80 | 256 | 8.0 | 18.0 | 0.00 | 0.00 | 0.00 | 36 | 1009.8 |
| 20260504204532 | 80 | 271 | 7.0 | 17.0 | 0.00 | 0.00 | 0.00 | 37 | 1009.9 |
| 20260504203109 | 80 | 262 | 7.0 | 14.0 | 0.00 | 0.00 | 0.00 | 39 | 1010.1 |
| 20260504201539 | 80 | 54 | 4.0 | 9.0 | 0.00 | 0.00 | 0.00 | 41 | 1010.2 |
| 20260504193031 | 80 | 60 | 6.0 | 11.0 | 0.00 | 0.00 | 0.00 | 43 | 1010.3 |
| 20260504190036 | 78 | 66 | 7.0 | 11.0 | 0.00 | 0.00 | 0.00 | 46 | 1010.4 |
| 20260504184533 | 78 | 60 | 8.0 | 12.0 | 0.00 | 0.00 | 0.00 | 47 | 1010.4 |
| 20260504183036 | 78 | 56 | 6.0 | 12.0 | 0.00 | 0.00 | 0.00 | 45 | 1010.5 |
| 20260504181532 | 79 | 41 | 5.0 | 8.0 | 0.00 | 0.00 | 0.00 | 45 | 1010.5 |
| 20260504180038 | 77 | 26 | 2.0 | 6.0 | 0.00 | 0.00 | 0.00 | 44 | 1010.5 |
| 20260504174536 | 77 | 27 | 4.0 | 7.0 | 0.00 | 0.00 | 0.00 | 45 | 1010.6 |
| 20260504173035 | 76 | 55 | 4.0 | 6.0 | 0.00 | 0.00 | 0.00 | 45 | 1010.6 |
| 20260504171606 | 75 | 35 | 3.0 | 5.0 | 0.00 | 0.00 | 0.00 | 45 | 1010.6 |
| 20260504130110 | 46 | 165 | 3.0 | 5.0 | 0.00 | 0.00 | 0.00 | 88 | 1010.1 |